Regional Weather Roundup
Issued by NWS

Home | Current Version | Previous Version | Graphics & Text | Print | Product List | Glossary On
Versions: 1 2 3 4 5 6 7 8 9 10 11 12 13 14 15 16 17 18 19 20 21 22 23 24 25 26 27 28 29 30 31 32 33 34 35 36 37 38 39 40 41 42 43 44 45 46 47 48 49
000
ASUS43 KDMX 220307
RWRIA

WEATHER ROUNDUP FOR IOWA
NATIONAL WEATHER SERVICE DES MOINES IA
1000 PM CDT THU AUG 21 2014

NOTE: "FAIR" INDICATES FEW OR NO CLOUDS BELOW 12,000 FEET WITH NO
SIGNIFICANT WEATHER AND/OR OBSTRUCTIONS TO VISIBILITY.

* - THESE STATIONS ARE NOT NWS STATIONS...THUS NOT UNDER NWS
QUALITY CONTROL.  THEY ALSO DO NOT REPORT WEATHER SUCH
AS PRECIPITATION OR FOG.

IAZ001>003-012>014-020>022-031>034-043>046-220400-
   NORTHWEST IOWA

CITY           SKY/WX    TMP DP  RH WIND       PRES   REMARKS
CARROLL *      CLEAR     75  73  94 SE5       29.88S
CHEROKEE *     PTCLDY    77  77 100 CALM      29.87R
DENISON *      CLEAR     77  75  94 SE3       29.86S
LE MARS *      MOCLDY    77  75  94 CALM      29.88R
ORANGE CITY *  CLEAR     82  72  69 N5        29.89R HX  87
SHELDON *      CLOUDY    75  75 100 CALM      29.87R
SIOUX CITY     PTCLDY    79  75  87 CALM      29.86R HX  83
SPENCER        MOCLDY    75  68  78 E6        29.88S
STORM LAKE *   MOCLDY    75  75 100 S6        29.90R
$$

IAZ055>058-069>071-079>083-090>094-220400-
   SOUTHWEST IOWA

CITY           SKY/WX    TMP DP  RH WIND       PRES   REMARKS
ATLANTIC *     PTCLDY    77  75  94 NE3       29.87R
AUDUBON *      CLEAR     75  73  94 CALM      29.90R
CLARINDA *     PTCLDY    81  79  94 CALM      29.87R HX  89
COUNCIL BLFS * CLOUDY    81  79  94 E7        29.86R HX  89
CRESTON *      CLOUDY    79  77  94 CALM      29.89R HX  83
HARLAN  *      CLEAR     75  75 100 CALM      29.91R
LAMONI         MOCLDY    81  76  84 SE8       29.88R HX  87
RED OAK *      CLEAR     79  77  94 NE5       29.86R HX  83
SHENANDOAH *   CLEAR     79  79 100 NE7       29.85S HX  83
$$

IAZ047>049-059>061-072>074-084-220400-
   CENTRAL IOWA

CITY           SKY/WX    TMP DP  RH WIND       PRES   REMARKS
AMES           CLEAR     75  74  96 S3        29.88S
ANKENY *       CLOUDY    77  75  94 N5        29.88R
CHARITON *     MOCLDY    79  75  89 SE5       29.88R HX  82
DES MOINES     PTCLDY    83  76  79 SE5       29.87R HX  91
GRINNELL*      CLEAR     77  73  88 S6        29.89S
KNOXVILLE *    PTCLDY    79  75  89 SE5       29.88R HX  82
MARSHALLTOWN   CLEAR     77  75  93 S6        29.88R
PELLA *        PTCLDY    81  77  89 S5        29.89R HX  88
PERRY *          N/A     77  75  94 E3        29.88S
$$

IAZ004>006-015-016-023>025-035-036-220400-
   NORTH CENTRAL IOWA

CITY           SKY/WX    TMP DP  RH WIND       PRES   REMARKS
ALGONA *       CLEAR     77  75  94 S7        29.87S
CLARION *      CLEAR     75  73  94 S3        29.88R
ESTHERVILLE    PTCLDY    72  71  97 SW7       29.86R
FORT DODGE *   CLEAR     77  73  88 S3        29.89R
MASON CITY     MOCLDY    76  73  91 S5        29.89S
FOREST CITY *  CLEAR     77  75  94 S5        29.87S
IOWA FALLS *     N/A     75  72  88 SW6       29.90S
$$

IAZ007>011-017>019-026>030-037>042-050>054-066-220400-
   NORTHEAST IOWA

CITY           SKY/WX    TMP DP  RH WIND       PRES   REMARKS
CEDAR RAPIDS   CLEAR     76  74  93 CALM      29.89R
CHARLES CITY * CLEAR     73  72  94 S5        29.89S
CLINTON *      MOCLDY    75  73  94 CALM      29.92S
DECORAH *      PTCLDY    72  70  94 SE6       29.89S
DUBUQUE        CLOUDY    73  71  93 E3        29.93R
MONTICELLO *   CLOUDY    73  73 100 NE3       29.90S
OELWEIN *      MOCLDY    72  72 100 SE3       29.91R
WATERLOO       CLEAR     75  72  90 CALM      29.87R
$$

IAZ064-065-067-068-078-220400-
   EAST CENTRAL IOWA

CITY           SKY/WX    TMP DP  RH WIND       PRES   REMARKS
DAVENPORT      PTCLDY    75  73  93 SE5       29.90S
IOWA CITY      PTCLDY    75  75 100 S3        29.89R
MT. PLEASANT * CLEAR     79  75  89 S3        29.90R HX  82
MUSCATINE *    CLEAR     77  75  94 CALM      29.88S
QUAD CITIES    PTCLDY    76  73  91 SE3       29.89R
$$

IAZ062-063-075>077-085>089-095>099-220400-
   SOUTHEAST IOWA

CITY           SKY/WX    TMP DP  RH WIND       PRES   REMARKS
BURLINGTON     CLEAR     78  77  96 SW6       29.89R HX  81
FAIRFIELD *    MOCLDY    79  75  89 S5        29.90R HX  82
FORT MADISON * CLEAR     79  77  94 CALM      29.91R HX  83
KEOKUK *       CLEAR     81  77  89 S6        29.89R HX  88
OSKALOOSA *    MOCLDY    79  75  89 S6        29.89R HX  82
CENTERVILLE *  CLEAR     77  77 100 SE5       29.91R
OTTUMWA        PTCLDY    77  75  93 SE5       29.89R
WASHINGTON *   PTCLDY    75  75 100 S6        29.89S
$$

ABBREVIATIONS USED IN REMARKS
   TC - TEMPERATURES IN CELSIUS
  WCI - WIND CHILL INDEX
   HX - HEAT INDEX
  VSB - VISIBILITY
$$



USA.gov is the U.S. government's official web portal to all federal, state and local government web resources and services.